Date String (YYYY-MM-DD hh:mm:ss) UTC,Instrument flags,Ambient pressure (hPa),Sample flow (lpm),Bypass flow (lpm),Sample temperature (°C),Ambient temperature (°C),ASC tube jacket temperature (°C),LED temperature (°C),Box temperature (°C),Sample RH (%),Span deviation,Mass concentration (μg/m³),Mass concentration (μg/m³),Mass concentration (μg/m³)
DateTimeUTC,F1_M11,P_M11,Q1_M11,Q2_M11,T1_M11,T2_M11,T3_M11,T4_M11,T5_M11,U1_M11,ZSPAN_M11,X0_M11,X2_M11,X1_M11
2022-06-17 16:00:00,,0827.9,5.00,0.00,32.9,27.6,00.0,40.5,32.6,34.8,0000.0,0018.35,0007.92,0005.00
2022-06-17 16:01:00,,0827.9,5.00,0.00,33.1,27.8,00.0,40.5,32.6,34.5,0000.0,0018.23,0007.92,0005.02
2022-06-17 16:02:00,,0827.8,4.99,0.00,33.1,28.0,00.0,40.5,32.5,34.4,0000.0,0018.37,0007.94,0005.04
2022-06-17 16:03:00,,0827.8,5.00,0.00,33.1,28.2,00.0,40.5,32.5,34.5,0000.0,0018.91,0008.06,0005.06
2022-06-17 16:04:00,,0827.8,5.00,0.00,33.0,28.3,00.0,40.6,32.6,34.5,0000.8,0019.23,0008.22,0005.09
2022-06-17 16:05:00,,0827.8,4.99,0.00,33.0,28.5,00.0,40.6,32.6,34.9,0000.2,0020.52,0008.30,0005.12
2022-06-17 16:06:00,,0827.7,5.02,0.00,33.0,28.6,00.0,40.6,32.6,35.2,0001.6,0020.63,0008.26,0005.13
2022-06-17 16:07:00,,0827.8,4.99,0.00,33.1,28.1,00.0,40.6,32.7,35.0,0002.7,0020.72,0008.26,0005.12
2022-06-17 16:08:00,,0827.8,5.01,0.00,33.2,27.6,00.0,40.6,32.6,34.7,0003.1,0020.91,0008.14,0005.08
2022-06-17 16:09:00,,0827.8,4.99,0.00,33.2,27.5,00.0,40.6,32.5,34.4,0003.7,0021.49,0008.06,0005.05
2022-06-17 16:10:00,,0827.7,5.01,0.00,33.1,27.5,00.0,40.6,32.4,34.5,0004.0,0022.15,0008.07,0005.03
2022-06-17 16:11:00,,0827.8,5.00,0.00,33.0,27.6,00.0,40.6,32.4,34.5,0003.6,0021.94,0007.97,0004.99
2022-06-17 16:12:00,,0827.8,4.99,0.00,32.9,27.8,00.0,40.6,32.4,34.7,0003.7,0022.48,0007.93,0004.95
2022-06-17 16:13:00,,0827.7,5.00,0.00,32.9,28.0,00.0,40.6,32.4,35.0,0003.7,0023.04,0007.87,0004.90
2022-06-17 16:14:00,,0827.7,5.02,0.00,32.8,28.2,00.0,40.7,32.5,35.1,0003.0,0022.87,0007.76,0004.86
2022-06-17 16:15:00,,0827.7,5.00,0.00,33.0,28.3,00.0,40.7,32.6,34.8,0002.8,0023.54,0007.68,0004.81
2022-06-17 16:16:00,,0827.7,5.01,0.00,33.1,28.5,00.0,40.7,32.7,34.7,0002.4,0022.42,0007.64,0004.78
2022-06-17 16:17:00,,0827.8,5.00,0.00,33.1,28.6,00.0,40.7,32.7,34.8,0003.1,0022.90,0007.64,0004.75
2022-06-17 16:18:00,,0827.7,4.99,0.00,33.0,28.2,00.0,40.6,32.6,34.8,0000.5,0023.18,0007.73,0004.77
2022-06-17 16:19:00,,0827.7,5.01,0.00,32.9,27.7,00.0,40.6,32.4,34.8,0000.0,0022.82,0007.86,0004.79
2022-06-17 16:20:00,,0827.7,4.99,0.00,32.8,27.5,00.0,40.6,32.3,35.0,0000.0,0022.89,0007.94,0004.83
2022-06-17 16:21:00,,0827.7,4.99,0.00,32.7,27.5,00.0,40.6,32.3,35.3,0001.5,0022.25,0007.87,0004.85
2022-06-17 16:22:00,,0827.8,5.01,0.00,32.9,27.7,00.0,40.5,32.5,35.1,0001.9,0022.24,0007.93,0004.88
2022-06-17 16:23:00,,0827.8,4.99,0.00,33.1,27.8,00.0,40.5,32.6,34.7,0000.0,0021.82,0008.01,0004.92
2022-06-17 16:24:00,,0827.7,5.00,0.00,33.2,28.0,00.0,40.6,32.6,34.4,0000.0,0021.59,0008.08,0004.96
2022-06-17 16:25:00,,0827.7,5.01,0.00,33.2,28.2,00.0,40.6,32.6,34.3,0000.0,0022.25,0008.23,0005.00
2022-06-17 16:26:00,,0827.7,5.00,0.00,33.1,28.3,00.0,40.6,32.6,34.2,0000.0,0021.54,0008.25,0005.03
2022-06-17 16:27:00,,0827.7,4.99,0.00,33.1,28.5,00.0,40.7,32.6,34.3,0000.0,0020.89,0008.23,0005.05
2022-06-17 16:28:00,,0827.7,4.99,0.00,33.0,28.5,00.0,40.7,32.6,34.4,0000.0,0021.08,0008.28,0005.09
2022-06-17 16:29:00,,0827.7,5.00,0.00,32.9,28.0,00.0,40.6,32.4,34.6,0000.0,0021.68,0008.28,0005.11
2022-06-17 16:30:00,,0827.7,5.00,0.00,32.8,27.5,00.0,40.6,32.3,34.9,0000.0,0022.16,0008.30,0005.14
2022-06-17 16:31:00,,0827.6,4.99,0.00,32.7,27.4,00.0,40.6,32.3,35.1,0000.0,0021.16,0008.36,0005.18
2022-06-17 16:32:00,,0827.7,5.01,0.00,32.8,27.5,00.0,40.6,32.4,34.9,0000.0,0021.73,0008.49,0005.21
2022-06-17 16:33:00,,0827.7,5.00,0.00,32.8,27.6,00.0,40.5,32.5,34.8,0000.0,0022.75,0008.58,0005.24
2022-06-17 16:34:00,,0827.7,4.99,0.00,32.8,27.8,00.0,40.5,32.4,34.9,0000.0,0023.44,0008.55,0005.26
2022-06-17 16:35:00,,0827.7,5.00,0.00,32.8,28.0,00.0,40.5,32.4,34.9,0000.0,0023.47,0008.56,0005.29
2022-06-17 16:36:00,,0827.7,5.01,0.00,32.7,28.2,00.0,40.5,32.5,34.9,0000.0,0023.29,0008.63,0005.34
2022-06-17 16:37:00,,0827.6,4.99,0.00,32.7,28.4,00.0,40.6,32.5,35.0,0000.0,0024.03,0008.63,0005.39
2022-06-17 16:38:00,,0827.7,5.01,0.00,32.8,28.5,00.0,40.6,32.6,34.7,0000.0,0024.34,0008.69,0005.42
2022-06-17 16:39:00,,0827.7,5.00,0.00,32.9,28.4,00.0,40.5,32.6,34.5,0000.0,0023.67,0008.73,0005.44
2022-06-17 16:40:00,,0827.7,4.99,0.00,32.8,27.8,00.0,40.5,32.5,34.6,0000.0,0023.06,0008.78,0005.44
2022-06-17 16:41:00,,0827.7,5.01,0.00,32.8,27.5,00.0,40.4,32.3,34.8,0000.0,0022.81,0008.78,0005.44
2022-06-17 16:42:00,,0827.7,4.99,0.00,32.6,27.4,00.0,40.4,32.3,35.1,0000.0,0023.00,0008.72,0005.42
2022-06-17 16:43:00,,0827.6,4.99,0.00,32.6,27.5,00.0,40.4,32.3,35.1,0000.0,0022.75,0008.68,0005.41
2022-06-17 16:44:00,,0827.7,5.00,0.00,32.8,27.7,00.0,40.4,32.4,34.7,0000.0,0022.57,0008.59,0005.41
2022-06-17 16:45:00,,0827.7,5.00,0.00,32.9,27.8,00.0,40.4,32.5,34.5,0000.8,0022.48,0008.59,0005.41
2022-06-17 16:46:00,,0827.6,5.01,0.00,32.9,28.0,00.0,40.4,32.5,34.7,0000.3,0022.16,0008.58,0005.41
2022-06-17 16:47:00,,0827.7,5.01,0.00,32.8,28.2,00.0,40.5,32.5,34.8,0000.0,0021.47,0008.52,0005.37
2022-06-17 16:48:00,,0827.7,4.99,0.00,32.8,28.4,00.0,40.5,32.5,35.0,0000.0,0021.35,0008.53,0005.30
2022-06-17 16:49:00,,0827.7,5.00,0.00,32.8,28.3,00.0,40.5,32.5,34.9,0000.0,0021.66,0008.48,0005.23
2022-06-17 16:50:00,,0827.7,5.01,0.00,32.8,27.7,00.0,40.4,32.4,34.5,0000.0,0021.89,0008.41,0005.17
2022-06-17 16:51:00,,0827.7,4.99,0.00,32.8,27.3,00.0,40.4,32.3,34.7,0000.0,0022.63,0008.37,0005.11
2022-06-17 16:52:00,,0827.7,5.00,0.00,32.7,27.3,00.0,40.4,32.2,35.0,0001.2,0022.34,0008.30,0005.07
2022-06-17 16:53:00,,0827.7,5.00,0.00,32.6,27.4,00.0,40.4,32.2,35.1,0000.0,0023.12,0008.29,0005.02
2022-06-17 16:54:00,,0827.7,4.99,0.00,32.7,27.5,00.0,40.4,32.3,34.8,0000.0,0023.14,0008.33,0004.98
2022-06-17 16:55:00,,0827.7,5.00,0.00,32.8,27.7,00.0,40.4,32.4,34.6,0000.0,0023.03,0008.24,0004.92
2022-06-17 16:56:00,,0827.7,5.01,0.00,32.8,27.9,00.0,40.4,32.4,34.7,0000.0,0022.68,0008.17,0004.88
2022-06-17 16:57:00,,0827.7,4.99,0.00,32.7,28.1,00.0,40.4,32.4,34.8,0000.0,0023.33,0008.24,0004.86
2022-06-17 16:58:00,,0827.7,5.00,0.00,32.7,28.3,00.0,40.4,32.4,34.8,0000.0,0023.33,0008.17,0004.82
2022-06-17 16:59:00,,0827.7,5.00,0.00,32.6,28.4,00.0,40.5,32.4,35.0,0000.0,0022.57,0008.08,0004.83
